DW8362 Weather Reports


Display with metric or nautical units.
time (UTC)temp
F
wind
direction
speed
MPH
gust
MPH
rain 1hr
in
rain 24hr
in
rain mn
in
humidity
%
barometer
mb
20260509201047 74 131 0.0 4.0 0.00 0.00 0.00 52 1006.8
20260509200549 74 141 0.0 4.0 0.00 0.00 0.00 51 1006.8
20260509200046 75 120 0.0 5.0 0.00 0.00 0.00 51 1006.9
20260509195546 75 144 1.0 5.0 0.00 0.00 0.00 52 1006.9
20260509195046 75 141 1.0 5.0 0.00 0.00 0.00 51 1007.0
20260509194547 75 159 0.0 4.0 0.00 0.00 0.00 54 1006.9
20260509194046 75 162 2.0 4.0 0.00 0.00 0.00 52 1007.0
20260509193551 74 159 2.0 5.0 0.00 0.00 0.00 51 1007.0
20260509193546 74 133 0.0 5.0 0.00 0.00 0.00 52 1006.9
20260509192550 75 166 3.0 5.0 0.00 0.00 0.00 52 1007.2
20260509192545 74 192 0.0 5.0 0.00 0.00 0.00 49 1007.1
20260509191546 74 154 1.0 5.0 0.00 0.00 0.00 51 1007.2
20260509191045 74 111 0.0 7.0 0.00 0.00 0.00 52 1007.3
20260509190548 72 142 2.0 5.0 0.00 0.00 0.00 52 1007.6
20260509190544 73 154 3.0 7.0 0.00 0.00 0.00 52 1007.5
20260509185545 72 145 3.0 5.0 0.00 0.00 0.00 50 1007.5
20260509185047 72 309 0.0 3.0 0.00 0.00 0.00 52 1007.6
20260509184545 72 176 0.0 5.0 0.00 0.00 0.00 53 1007.6
20260509184045 72 151 2.0 7.0 0.00 0.00 0.00 52 1007.6
20260509183544 72 168 1.0 7.0 0.00 0.00 0.00 54 1007.7
20260509183044 72 169 4.0 5.0 0.00 0.00 0.00 52 1007.9
20260509182544 71 145 1.0 3.0 0.00 0.00 0.00 54 1007.9
20260509182044 71 320 0.0 2.0 0.00 0.00 0.00 52 1008.0
20260509181544 70 329 0.0 3.0 0.00 0.00 0.00 53 1008.1
20260509181044 70 286 1.0 3.0 0.00 0.00 0.00 54 1008.2
20260509180545 70 203 0.0 2.0 0.00 0.00 0.00 54 1008.3
20260509180044 70 307 0.0 2.0 0.00 0.00 0.00 54 1008.5
20260509175543 69 306 0.0 2.0 0.00 0.00 0.00 54 1008.4
20260509175047 69 202 0.0 3.0 0.00 0.00 0.00 53 1008.8
20260509175043 69 269 0.0 3.0 0.00 0.00 0.00 53 1008.5
20260509174044 68 183 0.0 2.0 0.00 0.00 0.00 54 1008.8
20260509173543 68 138 0.0 1.0 0.00 0.00 0.00 52 1008.9
20260509173043 68 319 0.0 1.0 0.00 0.00 0.00 53 1009.0
20260509172543 68 279 0.0 2.0 0.00 0.00 0.00 53 1009.1
20260509172044 68 337 1.0 3.0 0.00 0.00 0.00 54 1009.1
20260509171544 67 145 1.0 4.0 0.00 0.00 0.00 52 1009.2
20260509171044 68 161 2.0 5.0 0.00 0.00 0.00 51 1009.4
20260509170543 68 151 3.0 5.0 0.00 0.00 0.00 51 1009.6
20260509170042 69 151 0.0 3.0 0.00 0.00 0.00 51 1009.6
20260509165542 69 157 1.0 4.0 0.00 0.00 0.00 52 1009.4
20260509165042 69 290 0.0 4.0 0.00 0.00 0.00 49 1009.4
20260509164542 69 324 0.0 2.0 0.00 0.00 0.00 51 1009.3
20260509164042 69 175 0.0 2.0 0.00 0.00 0.00 50 1009.0
20260509163543 69 210 0.0 4.0 0.00 0.00 0.00 52 1009.0
20260509163043 69 168 1.0 4.0 0.00 0.00 0.00 52 1008.9
20260509162541 69 286 1.0 4.0 0.00 0.00 0.00 51 1009.0
20260509162042 68 175 1.0 5.0 0.00 0.00 0.00 53 1009.2
20260509161542 68 329 0.0 5.0 0.00 0.00 0.00 53 1009.1
20260509161042 68 329 2.0 3.0 0.00 0.00 0.00 51 1009.3
20260509160541 68 248 0.0 2.0 0.00 0.00 0.00 52 1009.3
20260509160041 67 207 0.0 2.0 0.00 0.00 0.00 55 1009.3
20260509155542 67 207 0.0 2.0 0.00 0.00 0.00 54 1009.4
20260509155042 66 155 0.0 2.0 0.00 0.00 0.00 56 1009.4
20260509154540 67 145 0.0 2.0 0.00 0.00 0.00 52 1009.4
20260509154040 67 295 0.0 2.0 0.00 0.00 0.00 53 1009.4
20260509153541 67 293 1.0 2.0 0.00 0.00 0.00 56 1009.4
20260509153040 66 326 0.0 4.0 0.00 0.00 0.00 53 1009.6
20260509152540 65 220 1.0 4.0 0.00 0.00 0.00 55 1009.6
20260509152040 65 326 2.0 3.0 0.00 0.00 0.00 60 1009.6
20260509151540 65 329 1.0 4.0 0.00 0.00 0.00 58 1009.4
20260509151040 65 324 2.0 4.0 0.00 0.00 0.00 59 1009.6
20260509150540 65 330 0.0 2.0 0.00 0.00 0.00 61 1009.7
20260509150039 65 317 0.0 3.0 0.00 0.00 0.00 59 1009.7
20260509145539 64 125 0.0 4.0 0.00 0.00 0.00 60 1009.7
20260509145039 64 138 2.0 4.0 0.00 0.00 0.00 61 1009.9
20260509144540 63 109 0.0 2.0 0.00 0.00 0.00 66 1010.0
20260509144039 62 142 0.0 2.0 0.00 0.00 0.00 64 1010.0
20260509143539 62 197 0.0 4.0 0.00 0.00 0.00 64 1010.1
20260509143039 61 148 1.0 4.0 0.00 0.00 0.00 65 1010.1
20260509142539 61 158 1.0 4.0 0.00 0.00 0.00 66 1010.2
20260509142040 61 158 2.0 4.0 0.00 0.00 0.00 66 1010.3
20260509141543 60 142 1.0 3.0 0.00 0.00 0.00 66 1010.2
20260509141538 61 137 1.0 3.0 0.00 0.00 0.00 67 1010.3
20260509140538 60 158 0.0 3.0 0.00 0.00 0.00 68 1009.9
20260509140039 60 152 1.0 3.0 0.00 0.00 0.00 66 1009.7
20260509135537 60 151 0.0 4.0 0.00 0.00 0.00 66 1009.7
20260509135044 60 195 1.0 4.0 0.00 0.00 0.00 66 1009.8
20260509135038 60 151 2.0 4.0 0.00 0.00 0.00 66 1009.8
20260509134038 60 151 0.0 4.0 0.00 0.00 0.00 65 1009.8
20260509133542 60 149 1.0 3.0 0.00 0.00 0.00 65 1009.7
20260509133538 60 138 1.0 3.0 0.00 0.00 0.00 64 1009.8
20260509132537 60 157 0.0 3.0 0.00 0.00 0.00 64 1009.8
20260509132043 60 147 1.0 3.0 0.00 0.00 0.00 66 1009.9
20260509132039 60 154 1.0 3.0 0.00 0.00 0.00 65 1009.9
20260509131037 60 114 2.0 4.0 0.00 0.00 0.00 66 1009.9
20260509130538 60 158 0.0 4.0 0.00 0.00 0.00 69 1009.9
20260509130036 59 158 2.0 4.0 0.00 0.00 0.00 70 1009.9
20260509125536 59 142 1.0 3.0 0.00 0.00 0.00 69 1010.0
20260509125036 59 172 2.0 3.0 0.00 0.00 0.00 68 1010.0
20260509124542 58 148 0.0 2.0 0.00 0.00 0.00 69 1009.8
20260509124536 59 141 0.0 3.0 0.00 0.00 0.00 69 1010.0
20260509124037 59 157 0.0 2.0 0.00 0.00 0.00 68 1009.8
20260509123657 58 161 1.0 2.0 0.00 0.00 0.00 68 1009.9
20260509123035 58 165 0.0 2.0 0.00 0.00 0.00 70 1009.8
20260509122654 58 151 0.0 0.0 0.00 0.00 0.00 71 1009.9
20260509121536 58 151 0.0 2.0 0.00 0.00 0.00 70 1010.0
20260509121035 57 151 0.0 2.0 0.00 0.00 0.00 71 1010.1
20260509120536 57 169 0.0 2.0 0.00 0.00 0.00 74 1010.0
20260509120035 56 145 0.0 2.0 0.00 0.00 0.00 75 1010.1
20260509115535 56 159 1.0 2.0 0.00 0.00 0.00 77 1010.0
20260509115037 55 142 0.0 2.0 0.00 0.00 0.00 79 1009.9
20260509114535 55 148 0.0 1.0 0.00 0.00 0.00 80 1009.7
20260509114035 54 151 0.0 1.0 0.00 0.00 0.00 82 1009.9
20260509113535 54 131 0.0 0.0 0.00 0.00 0.00 84 1009.8
20260509113040 53 131 0.0 0.0 0.00 0.00 0.00 84 1009.7
20260509113034 54 131 0.0 0.0 0.00 0.00 0.00 84 1009.8
20260509112035 53 131 0.0 0.0 0.00 0.00 0.00 84 1009.6
20260509111534 53 131 0.0 0.0 0.00 0.00 0.00 83 1009.4
20260509111040 53 131 0.0 0.0 0.00 0.00 0.00 83 1009.2
20260509111034 53 131 0.0 0.0 0.00 0.00 0.00 83 1009.3
20260509110655 52 131 0.0 0.0 0.00 0.00 0.00 82 1009.2
20260509105535 52 131 0.0 0.0 0.00 0.00 0.00 81 1009.2
20260509105034 52 131 0.0 0.0 0.00 0.00 0.00 82 1009.1
20260509104534 52 131 0.0 0.0 0.00 0.00 0.00 82 1009.2
20260509104034 0 0.0 0.0 0.00 0.00 0.00 1009.1
20260509103534 0 0.0 0.0 0.00 0.00 0.00 1009.0
20260509103033 0 0.0 0.0 0.00 0.00 0.00 1009.0
20260509102532 0 0.0 0.0 0.00 0.00 0.00 1009.1
20260509102030 0 0.0 0.0 0.00 0.00 0.00 1009.0
20260509101530 0 0.0 0.0 0.00 0.00 0.00 1009.0
20260509101028 0 0.0 0.0 0.00 0.00 0.00 1009.0
20260509100527 0 0.0 0.0 0.00 0.00 0.00 1009.0
20260509100027 0 0.0 0.0 0.00 0.00 0.00 1009.0
20260509095526 0 0.0 0.0 0.00 0.00 0.00 1009.0
20260509095025 0 0.0 0.0 0.00 0.00 0.00 1008.9
20260509094524 0 0.0 0.0 0.00 0.00 0.00 1009.0
20260509094023 0 0.0 0.0 0.00 0.00 0.00 1008.9
20260509093522 0 0.0 0.0 0.00 0.00 0.00 1009.0
20260509093021 0 0.0 0.0 0.00 0.00 0.00 1009.1
20260509092524 0 0.0 0.0 0.00 0.00 0.00 1009.1
20260509092520 0 0.0 0.0 0.00 0.00 0.00 1009.0
20260509091518 0 0.0 0.0 0.00 0.00 0.00 1009.0
20260509091021 0 0.0 0.0 0.00 0.00 0.00 1009.0
20260509091017 0 0.0 0.0 0.00 0.00 0.00 1009.0
20260509090015 0 0.0 0.0 0.00 0.00 0.00 1009.1
20260509085515 0 0.0 0.0 0.00 0.00 0.00 1009.1
20260509085014 0 0.0 0.0 0.00 0.00 0.00 1009.1
20260509084513 0 0.0 0.0 0.00 0.00 0.00 1009.2
20260509084012 0 0.0 0.0 0.00 0.00 0.00 1009.2
20260509083511 76 131 0.0 0.0 0.00 0.00 0.00 84 1009.3
20260509083009 52 131 0.0 0.0 0.00 0.00 0.00 85 1009.3
20260509082511 52 131 0.0 0.0 0.00 0.00 0.00 85 1009.4
20260509082009 52 131 0.0 0.0 0.00 0.00 0.00 85 1009.4
20260509081509 52 131 0.0 0.0 0.00 0.00 0.00 83 1009.4
20260509081009 52 131 0.0 0.0 0.00 0.00 0.00 84 1009.4
20260509080514 52 131 0.0 0.0 0.00 0.00 0.00 84 1009.4
20260509080508 52 131 0.0 0.0 0.00 0.00 0.00 84 1009.4
20260509080126 51 131 0.0 0.0 0.00 0.00 0.00 84 1009.4
20260509075008 51 131 0.0 0.0 0.00 0.00 0.00 83 1009.4
20260509074513 51 131 0.0 0.0 0.00 0.00 0.00 85 1009.4
20260509074508 51 131 0.0 0.0 0.00 0.00 0.00 84 1009.4
20260509073509 51 131 0.0 0.0 0.00 0.00 0.00 85 1009.4
20260509073007 51 131 0.0 0.0 0.00 0.00 0.00 85 1009.4
20260509072508 51 131 0.0 0.0 0.00 0.00 0.00 84 1009.4
20260509072008 51 131 0.0 0.0 0.00 0.00 0.00 84 1009.6
20260509071508 52 131 0.0 0.0 0.00 0.00 0.00 84 1009.6
20260509071007 52 131 0.0 0.0 0.00 0.00 0.00 83 1009.6
20260509070507 52 131 0.0 2.0 0.00 0.00 0.00 83 1009.4
20260509070015 51 142 0.0 0.0 0.00 0.00 0.00 84 1009.7
20260509070007 52 131 0.0 2.0 0.00 0.00 0.00 82 1009.6
20260509065507 52 120 0.0 1.0 0.00 0.00 0.00 81 1009.7
20260509065008 51 142 0.0 0.0 0.00 0.00 0.00 82 1009.6
20260509064009 51 142 0.0 0.0 0.00 0.00 0.00 83 1009.7
20260509063507 51 142 0.0 0.0 0.00 0.00 0.00 84 1009.8
20260509063010 51 142 0.0 0.0 0.00 0.00 0.00 83 1009.9
20260509063006 51 142 0.0 0.0 0.00 0.00 0.00 84 1009.8
20260509062007 51 142 0.0 0.0 0.00 0.00 0.00 83 1009.8
20260509061506 51 142 0.0 0.0 0.00 0.00 0.00 81 1009.7
20260509061007 51 142 0.0 0.0 0.00 0.00 0.00 82 1009.9
20260509060507 51 142 0.0 0.0 0.00 0.00 0.00 83 1010.0
20260509060007 51 142 0.0 0.0 0.00 0.00 0.00 83 1009.9
20260509055510 51 142 0.0 0.0 0.00 0.00 0.00 81 1010.0
20260509055505 51 142 0.0 0.0 0.00 0.00 0.00 82 1009.9
20260509054506 51 142 0.0 0.0 0.00 0.00 0.00 81 1010.1
20260509054005 51 142 0.0 0.0 0.00 0.00 0.00 81 1010.1
20260509053506 50 142 0.0 0.0 0.00 0.00 0.00 82 1010.1
20260509053005 50 142 0.0 0.0 0.00 0.00 0.00 81 1010.1
20260509052504 50 142 0.0 0.0 0.00 0.00 0.00 82 1010.2
20260509052005 49 142 0.0 0.0 0.00 0.00 0.00 84 1010.1
20260509051506 49 142 0.0 0.0 0.00 0.00 0.00 85 1010.1
20260509051005 49 142 0.0 0.0 0.00 0.00 0.00 86 1010.2
20260509050510 49 142 0.0 0.0 0.00 0.00 0.00 86 1010.3
20260509050505 49 142 0.0 0.0 0.00 0.00 0.00 86 1010.2
20260509045505 49 142 0.0 0.0 0.00 0.00 0.00 86 1010.2
20260509045005 49 142 0.0 0.0 0.00 0.00 0.00 86 1010.3
20260509044504 48 142 0.0 0.0 0.00 0.00 0.00 86 1010.3
20260509044003 48 142 0.0 0.0 0.00 0.00 0.00 86 1010.2
20260509043504 48 142 0.0 0.0 0.00 0.00 0.00 86 1010.2
20260509043003 48 142 0.0 0.0 0.00 0.00 0.00 86 1010.2
20260509042512 49 142 0.0 0.0 0.00 0.00 0.00 84 1010.3
20260509042504 48 142 0.0 0.0 0.00 0.00 0.00 85 1010.2
20260509042005 48 142 0.0 0.0 0.00 0.00 0.00 85 1010.2
20260509041504 49 142 0.0 0.0 0.00 0.00 0.00 84 1010.2
20260509040504 49 142 0.0 0.0 0.00 0.00 0.00 84 1010.3
20260509040003 49 142 0.0 0.0 0.00 0.00 0.00 84 1010.4
20260509035503 49 142 0.0 0.0 0.00 0.00 0.00 84 1010.3
20260509035004 49 142 0.0 0.0 0.00 0.00 0.00 82 1010.3
20260509034503 50 142 0.0 0.0 0.00 0.00 0.00 82 1010.3
20260509034008 50 142 0.0 0.0 0.00 0.00 0.00 81 1010.3
20260509034004 50 142 0.0 0.0 0.00 0.00 0.00 82 1010.3
20260509033002 50 142 0.0 0.0 0.00 0.00 0.00 81 1010.3
20260509032502 51 142 0.0 0.0 0.00 0.00 0.00 80 1010.4
20260509032007 51 142 0.0 0.0 0.00 0.00 0.00 79 1010.4
20260509032002 51 142 0.0 0.0 0.00 0.00 0.00 79 1010.4
20260509031003 51 142 0.0 0.0 0.00 0.00 0.00 79 1010.4
20260509030502 51 142 0.0 0.0 0.00 0.00 0.00 79 1010.4
20260509030003 51 142 0.0 0.0 0.00 0.00 0.00 79 1010.4
20260509025501 51 142 0.0 0.0 0.00 0.00 0.00 79 1010.4
20260509025001 52 142 0.0 0.0 0.00 0.00 0.00 78 1010.3
20260509024501 52 142 0.0 1.0 0.00 0.00 0.00 78 1010.5
20260509024006 52 142 0.0 0.0 0.00 0.00 0.00 77 1010.6
20260509024001 52 142 0.0 1.0 0.00 0.00 0.00 77 1010.6
20260509023001 53 142 0.0 0.0 0.00 0.00 0.00 76 1010.5
20260509022501 53 142 0.0 0.0 0.00 0.00 0.00 76 1010.6
20260509022002 54 142 0.0 0.0 0.00 0.00 0.00 74 1010.5
20260509021500 54 142 0.0 0.0 0.00 0.00 0.00 74 1010.5
20260509021001 54 142 0.0 0.0 0.00 0.00 0.00 73 1010.5
20260509020501 55 142 0.0 0.0 0.00 0.00 0.00 73 1010.5
20260509020005 55 142 0.0 0.0 0.00 0.00 0.00 70 1010.5
20260509020000 55 142 0.0 0.0 0.00 0.00 0.00 71 1010.6
20260509015618 56 142 0.0 0.0 0.00 0.00 0.00 67 1010.5
20260509014500 56 142 0.0 0.0 0.00 0.00 0.00 67 1010.4
20260509014000 57 142 0.0 0.0 0.00 0.00 0.00 66 1010.5
20260509013501 57 142 0.0 0.0 0.00 0.00 0.00 64 1010.5
20260509012959 58 142 0.0 0.0 0.00 0.00 0.00 63 1010.4
20260509012459 58 142 0.0 1.0 0.00 0.00 0.00 62 1010.5
20260509011959 59 142 0.0 1.0 0.00 0.00 0.00 62 1010.4
20260509011507 60 142 0.0 0.0 0.00 0.00 0.00 58 1010.4
20260509011500 60 142 0.0 0.0 0.00 0.00 0.00 59 1010.3
20260509010959 60 142 0.0 0.0 0.00 0.00 0.00 58 1010.4
20260509010500 60 142 0.0 0.0 0.00 0.00 0.00 57 1010.4
20260509005458 61 142 0.0 1.0 0.00 0.00 0.00 59 1010.3
20260509004959 61 142 0.0 1.0 0.00 0.00 0.00 58 1010.3
20260509004459 61 142 0.0 2.0 0.00 0.00 0.00 56 1010.3
20260509004004 62 144 0.0 1.0 0.00 0.00 0.00 59 1010.2
20260509003959 62 142 1.0 2.0 0.00 0.00 0.00 59 1010.3
20260509002958 62 142 0.0 1.0 0.00 0.00 0.00 60 1010.3
20260509002503 63 213 0.0 0.0 0.00 0.00 0.00 59 1010.0
20260509002458 62 147 1.0 1.0 0.00 0.00 0.00 59 1010.2
20260509001957 63 213 0.0 0.0 0.00 0.00 0.00 60 1010.1
20260509001002 64 213 0.0 0.0 0.00 0.00 0.00 55 1009.9
20260509000957 63 213 0.0 0.0 0.00 0.00 0.00 55 1010.0
20260508235958 64 213 0.0 0.0 0.00 0.00 0.00 53 1009.9
20260508235505 65 213 0.0 0.0 0.00 0.00 0.00 52 1009.8
20260508235458 64 213 0.0 0.0 0.00 0.00 0.00 53 1009.9
20260508234957 64 213 0.0 0.0 0.00 0.00 0.00 53 1009.9
20260508233959 65 213 0.0 0.0 0.00 0.00 0.00 51 1009.8
20260508233456 65 213 0.0 0.0 0.00 0.00 0.00 51 1009.8
20260508232958 66 213 0.0 0.0 0.00 0.00 0.00 49 1009.7
20260508232456 66 212 0.0 0.0 0.00 0.00 0.00 49 1009.8
20260508231956 67 213 0.0 0.0 0.00 0.00 0.00 49 1009.7
20260508231502 68 245 0.0 0.0 0.00 0.00 0.00 40 1009.7
20260508231457 67 213 0.0 0.0 0.00 0.00 0.00 49 1009.7
20260508230456 68 245 0.0 0.0 0.00 0.00 0.00 39 1009.6
20260508225958 68 245 0.0 2.0 0.00 0.00 0.00 38 1009.6
20260508225457 68 247 0.0 2.0 0.00 0.00 0.00 37 1009.6
20260508224956 69 338 0.0 0.0 0.00 0.00 0.00 38 1009.6
20260508224457 69 338 0.0 0.0 0.00 0.00 0.00 38 1009.6
20260508223955 69 338 0.0 0.0 0.00 0.00 0.00 37 1009.6
20260508223455 70 338 0.0 2.0 0.00 0.00 0.00 36 1009.4
20260508222955 70 343 0.0 2.0 0.00 0.00 0.00 35 1009.4
20260508222455 71 245 0.0 1.0 0.00 0.00 0.00 34 1009.4
20260508222000 71 307 0.0 2.0 0.00 0.00 0.00 36 1009.4
20260508221955 71 238 0.0 2.0 0.00 0.00 0.00 34 1009.3
20260508220955 70 241 0.0 0.0 0.00 0.00 0.00 35 1009.4
20260508220455 70 272 0.0 3.0 0.00 0.00 0.00 36 1009.6
20260508215954 70 334 0.0 3.0 0.00 0.00 0.00 35 1009.6
20260508215456 70 337 0.0 2.0 0.00 0.00 0.00 36 1009.6
20260508214954 71 27 0.0 1.0 0.00 0.00 0.00 36 1009.7
20260508214454 71 244 0.0 1.0 0.00 0.00 0.00 36 1009.7
20260508213954 71 32 0.0 4.0 0.00 0.00 0.00 34 1009.6
20260508213453 72 152 0.0 4.0 0.00 0.00 0.00 35 1009.7
20260508212955 72 6 1.0 4.0 0.00 0.00 0.00 33 1009.6
20260508212455 73 133 0.0 4.0 0.00 0.00 0.00 33 1009.6
20260508211954 72 165 0.0 3.0 0.00 0.00 0.00 36 1009.4
20260508211458 69 164 2.0 5.0 0.00 0.00 0.00 37 1009.6
20260508211454 71 75 1.0 5.0 0.00 0.00 0.00 36 1009.4
20260508210454 69 145 1.0 3.0 0.00 0.00 0.00 38 1009.7
20260508205953 69 189 1.0 3.0 0.00 0.00 0.00 35 1009.6
20260508205453 69 161 0.0 2.0 0.00 0.00 0.00 37 1009.4
20260508204953 69 154 1.0 3.0 0.00 0.00 0.00 35 1009.7
20260508204454 69 148 1.0 4.0 0.00 0.00 0.00 34 1009.6
20260508203954 70 100 1.0 4.0 0.00 0.00 0.00 35 1009.8
20260508203453 70 154 1.0 4.0 0.00 0.00 0.00 33 1009.8
20260508202954 71 262 0.0 5.0 0.00 0.00 0.00 34 1009.9
20260508202457 72 148 1.0 5.0 0.00 0.00 0.00 36 1009.9
20260508202453 71 157 1.0 5.0 0.00 0.00 0.00 34 1009.8
20260508201452 71 326 0.0 7.0 0.00 0.00 0.00 37 1009.9